TimeEST,TemperatureF,Dew PointF,Humidity,Sea Level PressureIn,VisibilityMPH,Wind Direction,Wind SpeedMPH,Gust SpeedMPH,PrecipitationIn,Events,Conditions,WindDirDegrees,DateUTC
12:54 AM,37.9,33.1,83,30.04,10.0,South,6.9,-,0.00,Rain,Light Rain,170,2002-03-03 05:54:00
1:54 AM,39.0,32.0,76,29.96,10.0,SE,8.1,-,0.00,Rain,Light Rain,140,2002-03-03 06:54:00
2:54 AM,37.9,34.0,86,29.89,10.0,SE,10.4,-,0.01,Rain,Light Rain,130,2002-03-03 07:54:00
3:54 AM,39.0,36.0,89,29.81,8.0,SE,9.2,-,0.07,Rain,Rain,140,2002-03-03 08:54:00
4:54 AM,39.9,36.0,86,29.73,10.0,SSE,9.2,-,0.02,Rain,Light Rain,150,2002-03-03 09:54:00
5:54 AM,43.0,37.0,80,29.62,10.0,SE,13.8,-,0.03,,Overcast,140,2002-03-03 10:54:00
6:54 AM,39.0,37.9,96,29.62,4.0,South,3.5,-,0.00,Rain,Light Rain,170,2002-03-03 11:54:00
7:05 AM,39.2,39.2,100,29.61,5.0,Calm,Calm,-,0.00,Rain,Light Rain,0,2002-03-03 12:05:00
7:54 AM,41.0,39.9,96,29.61,3.0,SSW,5.8,-,0.00,,Light Drizzle,200,2002-03-03 12:54:00
8:12 AM,41.0,39.2,93,29.58,3.0,SSE,5.8,-,0.00,Rain,Light Rain,150,2002-03-03 13:12:00
8:54 AM,44.1,43.0,96,29.57,10.0,South,10.4,16.1,0.01,,Overcast,170,2002-03-03 13:54:00
9:54 AM,46.9,44.1,90,29.55,10.0,South,9.2,16.1,N/A,,Overcast,170,2002-03-03 14:54:00
10:13 AM,48.2,46.4,93,29.53,10.0,South,11.5,19.6,N/A,,Overcast,170,2002-03-03 15:13:00
10:54 AM,52.0,48.0,86,29.51,10.0,South,17.3,24.2,N/A,,Scattered Clouds,180,2002-03-03 15:54:00
11:54 AM,54.0,48.0,80,29.49,10.0,South,19.6,27.6,N/A,,Mostly Cloudy,180,2002-03-03 16:54:00
12:54 PM,55.0,48.0,77,29.41,10.0,South,16.1,-,N/A,,Scattered Clouds,170,2002-03-03 17:54:00
1:31 PM,55.4,48.2,77,29.38,10.0,South,24.2,27.6,N/A,,Mostly Cloudy,190,2002-03-03 18:31:00
1:54 PM,55.9,48.0,75,29.40,10.0,SSW,15.0,21.9,N/A,,Overcast,210,2002-03-03 18:54:00
2:54 PM,59.0,48.9,69,29.35,10.0,South,20.7,-,N/A,,Partly Cloudy,180,2002-03-03 19:54:00
3:54 PM,55.0,50.0,83,29.35,5.0,SSW,10.4,33.4,0.00,Rain,Rain,200,2002-03-03 20:54:00
4:12 PM,44.6,39.2,81,29.41,10.0,West,18.4,35.7,0.01,Rain,Light Rain,270,2002-03-03 21:12:00
4:27 PM,42.8,37.4,81,29.43,3.0,West,18.4,24.2,0.06,Rain,Light Ice Pellets,280,2002-03-03 21:27:00
4:33 PM,41.0,35.6,81,29.43,1.5,West,26.5,34.5,0.10,Rain,Light Ice Pellets,280,2002-03-03 21:33:00
4:46 PM,41.0,35.6,81,29.44,2.0,West,15.0,26.5,0.11,Rain,Rain,280,2002-03-03 21:46:00
4:54 PM,41.0,34.0,76,29.47,5.0,West,19.6,29.9,0.11,Rain,Light Rain,270,2002-03-03 21:54:00
5:54 PM,39.9,30.9,70,29.55,10.0,SW,5.8,-,0.01,,Overcast,220,2002-03-03 22:54:00
6:54 PM,41.0,26.1,55,29.58,10.0,West,11.5,-,N/A,,Overcast,260,2002-03-03 23:54:00
7:54 PM,39.0,23.0,53,29.62,10.0,West,23.0,33.4,N/A,,Overcast,260,2002-03-04 00:54:00
8:54 PM,37.0,21.0,52,29.66,10.0,WSW,15.0,23.0,N/A,,Scattered Clouds,250,2002-03-04 01:54:00
9:54 PM,36.0,19.9,52,29.66,10.0,WSW,16.1,24.2,N/A,,Scattered Clouds,250,2002-03-04 02:54:00
10:54 PM,34.0,17.1,50,29.68,10.0,WSW,20.7,27.6,N/A,,Overcast,250,2002-03-04 03:54:00
11:54 PM,32.0,15.1,50,29.68,10.0,WSW,16.1,25.3,N/A,,Overcast,240,2002-03-04 04:54:00